Regional Weather Roundup
Issued by NWS

Home | Current Version | Previous Version | Graphics & Text | Print | Product List | Glossary On
Versions: 1 2 3 4 5 6 7 8 9 10 11 12 13 14 15 16 17 18 19 20 21 22 23 24 25 26 27 28 29 30 31 32 33 34 35 36 37 38 39 40 41 42 43 44 45 46 47 48 49 50
000
ASUS43 KOAX 280402
RWRNE

WEATHER ROUNDUP FOR NEBRASKA
NATIONAL WEATHER SERVICE OMAHA NE
1100 PM CDT THU JUL 27 2017

NOTES: SATELLITE DATA IS BEING USED TO AUGMENT CLOUD COVER ABOVE
       12000 FEET.
       "FAIR" INDICATES FEW OR NO CLOUDS BELOW 12,000 FEET WITH NO
       SIGNIFICANT WEATHER AND/OR OBSTRUCTIONS TO VISIBILITY.


NEZ001>004-019>022-054>056-280500-
NEBRASKA PANHANDLE

CITY           SKY/WX    TMP DP  RH WIND       PRES   REMARKS
SCOTTSBLUFF    PTCLDY    67  62  84 SE14      30.06R
ALLIANCE       CLOUDY    64  60  87 MISG      30.05F
CHADRON        TSTM      62  57  83 NE16      30.09
GORDON         CLOUDY    68  56  64 NE7       30.12R
KIMBALL        CLOUDY    67  61  81 SE14G21   30.12R
SIDNEY         LGT RAIN  66  62  87 E14       30.12F
$$

NEZ057>060-069>072-079>082-280500-
SOUTHWEST NEBRASKA

CITY           SKY/WX    TMP DP  RH WIND       PRES   REMARKS
NORTH PLATTE   PTCLDY    67  59  75 E5        30.10R
IMPERIAL       CLEAR     73  56  54 SE13      30.08R
LEXINGTON      CLEAR     69  63  79 E3        30.08S
MCCOOK         CLEAR     71  61  70 E9        30.07R
OGALLALA       CLOUDY    69  63  83 W10       30.15R
$$

NEZ005>010-023>029-035>040-094-280500-
NORTH CENTRAL NEBRASKA

CITY           SKY/WX    TMP DP  RH WIND       PRES   REMARKS
VALENTINE      CLOUDY    72  57  59 E10       30.07R
AINSWORTH      MOCLDY    67  62  84 E6        30.08F
BROKEN BOW     PTCLDY    68  61  78 E5        30.08R
O`NEILL        MOCLDY    72  64  76 SE6       30.07S
ORD            MOCLDY    69  62  78 E3        30.06R
$$

NEZ041-046>049-061>064-073>077-083>087-280500-
SOUTH CENTRAL NEBRASKA

CITY           SKY/WX    TMP DP  RH WIND       PRES   REMARKS
GRAND ISLAND   CLEAR     69  66  90 CALM      30.07S
AURORA         CLEAR     69  66  89 CALM      30.06S
HASTINGS       CLEAR     71  63  75 E5        30.07F
HEBRON         CLEAR     69  65  87 E3        30.04S
HOLDREGE       CLEAR     66  63  91 E6        30.07S
KEARNEY        CLEAR     67  64  90 E5        30.08R
YORK           CLEAR     66  66 100 CALM      30.05S
$$

NEZ011>018-030>034-042>045-280500-
NORTHEAST NEBRASKA

CITY           SKY/WX    TMP DP  RH WIND       PRES   REMARKS
NORFOLK        PTCLDY    68  62  81 CALM      30.05R
ALBION         PTCLDY    69  66  90 CALM      30.07R
BLAIR          CLEAR     73  64  74 NE3       30.03S
COLUMBUS       CLOUDY    69  65  86 CALM      30.05R
FREMONT        CLEAR     72  64  76 CALM      30.02F
TEKAMAH        CLEAR     69  65  86 N5        30.01F
WAYNE          CLOUDY    66  66  99 CALM      30.05S
$$

NEZ050>053-065>068-078-088>093-280500-
SOUTHEAST NEBRASKA

CITY           SKY/WX    TMP DP  RH WIND       PRES   REMARKS
LINCOLN        CLEAR     70  65  84 E3        30.02F
OMAHA EPPLEY   CLEAR     71  66  84 CALM      30.01S
BEATRICE       CLEAR     69  66  89 CALM      30.03S
FALLS CITY     PTCLDY    71  66  84 NW5       29.99S
NEBRASKA CITY  CLEAR     70  69  96 CALM      30.02R
PLATTSMOUTH    CLEAR     72  63  72 CALM      30.02S
$$

NEZ044-045-051>053-067-280500-
OMAHA AREA

CITY           SKY/WX    TMP DP  RH WIND       PRES   REMARKS
OMAHA EPPLEY   CLEAR     71  66  84 CALM      30.01S
BLAIR          CLEAR     73  64  74 NE3       30.03S
FREMONT        CLEAR     72  64  76 CALM      30.02F
MILLARD        CLEAR     74  66  77 CALM      30.01F
OFFUTT AFB     CLEAR     70  65  83 NE3       30.01R
PLATTSMOUTH    CLEAR     72  63  72 CALM      30.02S
WAHOO          FAIR      67  65  94 N3        30.02S
$$



USA.gov is the U.S. government's official web portal to all federal, state and local government web resources and services.